This is the latest recevied weather packets stored in our database for station/object WT9M-8. If no packets are shown the sender has not sent any weather packets the latest 10 day(s).
| Time | Temp. | Humidity | Pressure | Rain* | Wind** | Luminosity | Snow |
|---|---|---|---|---|---|---|---|
| 1777897851 | 7.22° C | 89% | 999.4 hPa | 0 mm | - | 42 W/m² | - |
| 1777896036 | 2.22° C | 90% | 999.6 hPa | 0 mm | - | 21 W/m² | - |
| 1777890635 | 1.11° C | 88% | 1000.3 hPa | 0 mm | - | 0 W/m² | - |
| 1777887633 | 1.11° C | 86% | 1001.2 hPa | 0 mm | - | 0 W/m² | - |
| 1777876229 | 2.78° C | 82% | 1003.2 hPa | 0 mm | - | 0 W/m² | - |
| 1777875021 | 2.78° C | 82% | 1003.4 hPa | 0 mm | - | 0 W/m² | - |
| 1777873230 | 3.33° C | 81% | 1003.8 hPa | 0 mm | - | 0 W/m² | - |
| 1777872040 | 3.89° C | 80% | 1004 hPa | 0 mm | - | 0 W/m² | - |
| 1777870833 | 3.89° C | 81% | 1004.1 hPa | 0 mm | - | 0 W/m² | - |
| 1777869644 | 3.89° C | 79% | 1004.3 hPa | 0 mm | - | 0 W/m² | - |
| 1777866621 | 5° C | 75% | 1004.5 hPa | 0 mm | - | 0 W/m² | - |
| 1777865433 | 5.56° C | 74% | 1004.6 hPa | 0 mm | - | 0 W/m² | - |
| 1777863636 | 7.22° C | 72% | 1004.7 hPa | 0 mm | - | 0 W/m² | - |
| 1777859424 | 10.56° C | 70% | 1004 hPa | 0 mm | - | 0 W/m² | - |
| 1777855231 | 18.89° C | 42% | 1003.7 hPa | 0 mm | - | 8 W/m² | - |
| 1777854627 | 19.44° C | 40% | 1003.9 hPa | 0 mm | - | 12 W/m² | - |
| 1777854040 | 20.56° C | 38% | 1003.9 hPa | 0 mm | - | 15 W/m² | - |
| 1777851016 | 22.22° C | 34% | 1003.5 hPa | 0 mm | - | 27 W/m² | - |
| 1777839626 | 26.67° C | 37% | 1003.9 hPa | 0 mm | - | 554 W/m² | - |
| 1777839021 | 26.67° C | 37% | 1004.2 hPa | 0 mm | - | 585 W/m² | - |
| 1777838417 | 26.11° C | 39% | 1004.1 hPa | 0 mm | - | 608 W/m² | - |
| 1777834828 | 24.44° C | 41% | 1004.7 hPa | 0 mm | - | 652 W/m² | - |
| 1777828842 | 21.67° C | 44% | 1005.8 hPa | 0 mm | - | 603 W/m² | - |
| 1777827029 | 20.56° C | 45% | 1006.1 hPa | 0 mm | - | 528 W/m² | - |
| 1777824026 | 20° C | 44% | 1006.2 hPa | 0 mm | - | 457 W/m² | - |
* Rain latest hour (hover to see other rain measurements)
** Current wind speed in m/s (hover to see current wind gust speed)